Tracking 18852 objects as of 23-Nov-2017
HD Live streaming from Space Station
objects crossing your sky now

EXPLORER 11

Track EXPLORER 11 now!
10-day predictions
EXPLORER 11 is classified as:


NORAD ID: 107
Int'l Code: 1961-013A
Perigee: 474.5 km
Apogee: 1,269.1 km
Inclination: 28.8 °
Period: 102.2 minutes
Semi major axis: 7242 km
RCS: 0.4708 m2 (medium)
Launch date: April 27, 1961
Source: United States (US)
Launch site: AIR FORCE EASTERN TEST RANGE (AFETR)
aabbcc
Your satellite tracking list
Your tracking list is empty




NASA's NSSDC Master Catalog

Two Line Element Set (TLE):
1 00107U 61013A   17326.71468595  .00001004  00000-0  11548-3 0  9990
2 00107  28.7881  75.5993 0548559 164.2482 197.5907 14.08450635833430
Source of the keplerian elements: AFSPC